AirNav   Everest Fuels
 
 1138 users online  

9K8 Kingman Airport - Clyde Cessna Field
Kingman, Kansas, USA

GOING TO KINGMAN?


FAA INFORMATION EFFECTIVE 10 SEPTEMBER 2020

Location

FAA Identifier: 9K8
Lat/Long: 37-40-08.4580N 098-07-26.0101W
37-40.140967N 098-07.433502W
37.6690161,-98.1238917
(estimated)
Elevation: 1606.6 ft. / 489.7 m (surveyed)
Variation: 06E (2005)
From city: 1 mile NW of KINGMAN, KS
Time zone: UTC -5 (UTC -6 during Standard Time)
Zip code: 67068

Airport Operations

Airport use: Open to the public
Activation date: 08/1945
Control tower: no
ARTCC: KANSAS CITY CENTER
FSS: WICHITA FLIGHT SERVICE STATION
NOTAMs facility: ICT (NOTAM-D service available)
Attendance: MON-FRI 0830-2000
Wind indicator: lighted
Segmented circle: yes
Lights: ACTVT REIL RWY 18 & 36; PAPI RWY 18 & 36; HIRL 18/36 - CTAF.
Beacon: white-green (lighted land airport)
Operates sunset to sunrise.

Airport Communications

CTAF/UNICOM: 122.8
WX AWOS-3: 119.325 (620-532-1272)
WICHITA APPROACH: 125.5
WICHITA DEPARTURE: 125.5

Nearby radio navigation aids

VOR radial/distance  VOR name  Freq  Var
HUTr201/21.6HUTCHINSON VOR/DME116.8004E
ICTr253/26.0WICHITA VORTAC113.8007E
ANYr357/30.7ANTHONY VORTAC112.9007E

Airport Services

Fuel available: 100LL
SELF SVC FUEL AVBL WITH CREDIT CARD.
Parking: hangars and tiedowns
Airframe service: MAJOR
Powerplant service: MAJOR
Bottled oxygen: NONE
Bulk oxygen: NONE

Runway Information

Runway 18/36

Dimensions: 4300 x 75 ft. / 1311 x 23 m
Surface: concrete, in fair condition
Weight bearing capacity: 
PCN 11 /R/C/X/U
Single wheel: 30.0
Double wheel: 30.0
Runway edge lights: high intensity
RUNWAY 18  RUNWAY 36
Latitude: 37-40.435347N37-39.734007N
Longitude: 098-07.279277W098-07.406053W
Elevation: 1598.7 ft.1596.5 ft.
Traffic pattern: rightleft
Runway heading: 182 magnetic, 188 true002 magnetic, 008 true
Markings: nonprecision, in good conditionnonprecision, in good condition
Visual slope indicator: 4-light PAPI on left (3.00 degrees glide path)4-light PAPI on left (3.00 degrees glide path)
Runway end identifier lights: yesyes
Touchdown point: yes, no lightsyes, no lights
Obstructions: 15 ft. road, 550 ft. from runway, 24:1 slope to clear45 ft. trees, 1290 ft. from runway, 24:1 slope to clear

Runway 11/29

Dimensions: 3400 x 60 ft. / 1036 x 18 m
Surface: concrete, in good condition
Weight bearing capacity: 
PCN 11 /R/C/X/U
Single wheel: 30.0
Double wheel: 30.0
RUNWAY 11  RUNWAY 29
Latitude: 37-40.336687N37-40.087655N
Longitude: 098-07.864078W098-07.232797W
Elevation: 1606.6 ft.1592.5 ft.
Traffic pattern: leftright
Runway heading: 111 magnetic, 117 true291 magnetic, 297 true
Markings: nonprecision, in good conditionnonprecision, in good condition
Touchdown point: yes, no lightsyes, no lights
Obstructions: 29 ft. trees, 1350 ft. from runway, 39:1 slope to clear30 ft. pline, marked, 978 ft. from runway, 25:1 slope to clear
POWER LINE MARKED WITH ORANGE BALLS.

Airport Ownership and Management from official FAA records

Ownership: Publicly-owned
Owner: CITY OF KINGMAN
324 NORTH MAIN
KINGMAN, KS 67068
Phone 620-532-3111
Manager: EZRA OLSON
PO BOX 262
KINGMAN, KS 67068
Phone (620) 532-1279

Airport Operational Statistics

Aircraft based on the field: 23
Single engine airplanes: 22
Multi engine airplanes: 1
    
Aircraft operations: avg 26/day *
60% local general aviation
40% transient general aviation
* for 12-month period ending 31 July 2018

Additional Remarks

FOR CD CTC WICHITA APCH AT 316-350-1520.

Instrument Procedures

NOTE: All procedures below are presented as PDF files. If you need a reader for these files, you should download the free Adobe Reader.

NOT FOR NAVIGATION. Please procure official charts for flight.
FAA instrument procedures published for use from 10 September 2020 at 0901Z to 08 October 2020 at 0900z.

 
IAPs - Instrument Approach Procedures
RNAV (GPS) RWY 18   download (243KB)
RNAV (GPS) RWY 36   download (238KB)
NOTE: Special Take-Off Minimums/Departure Procedures apply   download (384KB)

Other nearby airports with instrument procedures:

8K2 - Harper Municipal Airport (24 nm S)
KHUT - Hutchinson Regional Airport (27 nm NE)
KPTT - Pratt Regional Airport (30 nm W)
KANY - Anthony Municipal Airport (31 nm S)
KICT - Wichita Dwight D Eisenhower National Airport (33 nm E)
 
Loc | Ops | Rwys | IFR | FBO | Links
Com | Nav | Svcs | Stats | Notes
Area around 9K8 (Kingman Airport - Clyde Cessna Field)
 
Road maps at: MapQuest Bing Google
 
Aerial photo
WARNING: Photo may not be current or correct
Aerial photo of 9K8 (Kingman Airport - Clyde Cessna Field)
Do you have a better or more recent aerial photo of Kingman Airport - Clyde Cessna Field that you would like to share? If so, please send us your photo.

 
Sectional chart

 
Airport distance calculator
Flying to Kingman Airport - Clyde Cessna Field? Find the distance to fly.

From to 9K8

Sunrise and sunset
Times for 27-Sep-2020
 Local
(UTC-5)
 Zulu
(UTC)
Morning civil twilight07:0012:00
Sunrise07:2612:26
Sunset19:2000:20
Evening civil twilight19:4600:46

Current date and time
Zulu (UTC)  27-Sep-2020 23:17:39
Local (UTC-5)  27-Sep-2020 18:17:39
 
METAR
KHUT 
27nm NE 
272252Z 04008KT 010V070 10SM OVC070 15/09 A2999 RMK AO2 SLP141 T01500089
KPTT 
30nm W 
272255Z AUTO 03019G30KT 10SM OVC065 18/01 A3000 RMK AO2 T01800007
KP28 
31nm SW 
272256Z AUTO 03019G29KT 17/06 A2997 RMK AO1 PK WND 02037/2206 SLP141 T01720056
KICT 
33nm E 
272253Z 02019G35KT 10SM OVC065 16/06 A2997 RMK AO2 PK WND 03035/2214 SLP140 T01610061
KLYO 
41nm N 
272255Z AUTO 02013G18KT 10SM BKN075 OVC120 17/03 A3000 RMK AO2 T01670030
KIAB 
41nm E 
272256Z AUTO 03026G32KT 10SM OVC060 15/05 A2996 RMK AO2 PK WND 04039/09 SLP142 T01540050 $
KBEC 
43nm E 
272255Z AUTO 03023G31KT 10SM OVC065 15/06 A2996 RMK AO2 T01470061
KAAO 
43nm E 
272254Z AUTO 02020G29KT 10SM OVC065 15/06 A2997 RMK AO2 PK WND 02033/2226 SLP142 T01500061
KEWK 
46nm NE 
272256Z AUTO 03011G19KT 10SM OVC070 13/08 A2999 RMK AO2 SLP148 T01330083
TAF
KHUT 
27nm NE 
271720Z 2718/2818 03020G30KT P6SM VCSH OVC015 FM272000 03020G30KT P6SM BKN060 FM280000 36008KT P6SM FEW090 FM280600 31012G20KT P6SM SCT250
KICT 
33nm E 
271720Z 2718/2818 03012KT P6SM VCSH OVC008 FM271900 01020G30KT P6SM VCTS OVC035CB FM280000 36010KT P6SM FEW090 FM281000 34013G21KT P6SM FEW250 WS020/00035KT
NOTAMs
Click for the latest NOTAMs
NOTAMs are issued by the DoD/FAA and will open in a separate window not controlled by AirNav.

 

 
 

FBO, Fuel Providers, and Aircraft Ground Support

  
 Business Name 
 
 Contact 
 
 Services / Description 
 
Fuel Prices
 
Comments
  
City of Kingman 620-532-1279
[web site]
[email]
Airport management, Aviation fuel, Aircraft parking (ramp or tiedown), Hangar leasing / sales, Passenger terminal and lounge, Courtesy transportation, ...

More info about City of Kingman
independent
100LL
AS $4.05 
 Updated 22-Sep-2020
 
   write
AS=Assisted/Self Service
Update Fuel Prices
 

Aviation Businesses, Services, and Facilities

  
 Business Name 
 
 Contact 
 
 Services / Description 
 
Distance
 
Comments
  
Prairie Wind Aviation 620-755-4440
[email]
Hangars, Aircraft maintenance, Avionics sales and service, Aircraft modifications, Aircraft cleaning / washing / detailing, Aircraft sales / leasing / brokerage, Aircraft management, ...

More info about Prairie Wind Aviation
on airport  
   write
 

Would you like to see your business listed on this page?

 If your business provides an interesting product or service to pilots, flight crews, aircraft, or users of the Kingman Airport - Clyde Cessna Field, you should consider listing it here.  To start the listing process, click on the button below
 
Add a business
 

Other Pages about Kingman Airport - Clyde Cessna Field

www.cityofkingman.com/airport
 
Update a link
 
Copyright © AirNav, LLC. All rights reserved. Privacy Policy  Contact